Regional Weather Roundup
Issued by NWS Jackson, KY

Home | Current Version | Previous Version | Text Only | Print | Product List | Glossary On
Versions: 1 2 3 4 5 6 7 8 9 10 11 12 13 14 15 16 17 18 19 20 21 22 23 24 25 26 27 28 29 30 31 32 33 34 35 36 37 38 39 40 41 42 43 44 45 46 47 48 49 50
000
ASUS43 KJKL 260010
RWRJKL

EAST KENTUCKY HOURLY WEATHER ROUNDUP
NATIONAL WEATHER SERVICE JACKSON KY
800 PM EDT SUN SEP 25 2016

NOTE: "FAIR" INDICATES FEW OR NO CLOUDS BELOW 12,000 FEET WITH
NO SIGNIFICANT WEATHER AND/OR OBSTRUCTIONS TO VISIBILITY.

* THESE REPORTS ARE NOT UNDER NWS QUALITY CONTROL AND MAY NOT
  REPORT WEATHER SUCH AS PRECIPITATION AND FOG.

KYZ079-080-083-085-087-088-110-112-115-119-120-260100
...EASTERN KENTUCKY...

CITY           SKY/WX    TMP DP  RH WIND       PRES   REMARKS
JACKSON        CLEAR     77  65  66 CALM      30.07S
6HR MIN TEMP:  76; 6HR MAX TEMP:  88;

LONDON         CLEAR     78  63  59 CALM      30.06R
6HR MIN TEMP:  78; 6HR MAX TEMP:  89;

SOMERSET*      CLEAR     77  64  65 CALM      30.05S
MONTICELLO*    CLEAR     73  63  70 VRB7      30.06R
6HR MIN TEMP:  73; 6HR MAX TEMP:  90;

WILLIAMSBURG*  CLEAR     77  66  69 CALM      30.06S
MIDDLESBORO*   CLEAR     75  68  78 W7        30.07R
6HR MIN TEMP:  75; 6HR MAX TEMP:  90;

HARLAN APT*    CLEAR     73  63  68 CALM      30.08S
PIKE CO APT*     N/A     75  65  69 NE5       30.08S
MOREHEAD APT*  PTCLDY    77  63  61 CALM      30.07S
ASHLAND*       CLEAR     75  68  78 CALM      30.03S
$$

KYZ035-036-041-042-044-050-067-078-099-260100
...CENTRAL KENTUCKY...

CITY           SKY/WX    TMP DP  RH WIND       PRES   REMARKS
MT STERLING*   CLEAR     77  70  78 CALM      30.06S
FLEMING/MASON* CLEAR     78  63  61 E3        30.06S
DANVILLE*      CLEAR     75  66  73 CALM      30.05S
LEXINGTON      MOCLDY    82  63  52 E5        30.04S
6HR MIN TEMP:  82; 6HR MAX TEMP:  91;

FRANKFORT      CLEAR     79  64  60 E5        30.02S
6HR MIN TEMP:  79; 6HR MAX TEMP:  91;

LOUISVILLE     PTCLDY    85  61  44 SW5       30.00R
6HR MIN TEMP:  85; 6HR MAX TEMP:  92;

LEBANON*         N/A     79  64  61 CALM      30.03F
GLASGOW*       CLEAR     74  66  77 CALM      30.02S
BOWLING GREEN  CLEAR     81  65  58 SE3       30.00F
6HR MIN TEMP:  81; 6HR MAX TEMP:  92;

$$

KYZ091>093-OHZ055-061-077-WVZ005-015-034-035-042-260100
...SOUTHERN OHIO/WEST VIRGINIA...

CITY           SKY/WX    TMP DP  RH WIND       PRES   REMARKS
COLUMBUS       PTCLDY    74  52  46 E7        30.05S
DAYTON         CLEAR     73  62  68 SE6       30.05S
WILMINGTON     CLEAR     75  65  70 CALM      30.04F
HUNTINGTON     CLEAR     79  61  53 CALM      30.04F
CHARLESTON     CLEAR     77  60  55 CALM      30.06R
PINEVILLE*     CLEAR     70  64  82 MISG      30.15R
BECKLEY        CLEAR     69  61  75 CALM      30.15R
BLUEFIELD      CLEAR     71  60  68 CALM      30.17S
LOGAN CO APT*    N/A     77  64  65 CALM      30.08S
$$

VAZ002-007-008-TNZ017-027-036-066-071-260100
...SOUTHWEST VIRGINIA/EAST TENNESSEE...

CITY           SKY/WX    TMP DP  RH WIND       PRES   REMARKS
WISE*          CLEAR     73  54  49 CALM      30.16S
JONESVILLE*      N/A    N/A N/A N/A MISG        N/A
ABINGDON*      PTCLDY    76  66  70 CALM      30.11S
BRISTOL        PTCLDY    76  62  62 CALM      30.07R
MORRISTOWN*    CLEAR     82  61  47 CALM      30.05R
SEVIERVILLE*   CLEAR     81  61  50 CALM      30.03R
KNOXVILLE      MOCLDY    86  59  39 NW6       30.02R
OAK RIDGE      CLEAR     82  65  56 CALM      30.05R
CROSSVILLE     CLEAR     76  64  66 CALM      30.10R
NASHVILLE      PTCLDY    85  62  46 N3        30.01S
$$

...KEY TO REMARKS...
VSB - VISIBILITY IN MILES
WCI - WIND CHILL INDEX
HX  - HEAT INDEX

$$



USA.gov is the U.S. government's official web portal to all federal, state and local government web resources and services.